Hourly Data Report for October 24, 2016

All times are specified in Local Standard Time (LST). Add 1 hour to adjust for Daylight Saving Time where and when it is observed.

ST LEONARD CS
NEW BRUNSWICK

47°09'28.050" N
67°49'55.014" W
245.00 m
810I001
71019
WIY

Download Data

Hourly Data (October 2016)
Hourly Data Report for October 24, 2016
Temp Definition
°C
Dew Point Temp Definition
°C
Rel Hum Definition
%
Wind Dir Definition
10's deg

Wind Spd Definition
km/h
Visibility Definition
km
Stn Press Definition
kPa
Hmdx Definition


Wind Chill Definition


Weather Definition


TIME
00:00 2.6 -0.7 79 26 23   96.47     LegendNANA
01:00 2.6 -1.3 75 26 29   96.51     LegendNANA
02:00 2.2 -1.9 74 26 24   96.56     LegendNANA
03:00 1.8 -2.2 75 26 22   96.59     LegendNANA
04:00 1.4 -2.3 77 25 15   96.65     LegendNANA
05:00 1.6 -2.1 77 24 20   96.74     LegendNANA
06:00 1.2 -1.9 80 24 12   96.82     LegendNANA
07:00 1.4 -1.8 79 25 16   96.89     LegendNANA
08:00 1.6 -1.8 78 25 13   96.93     LegendNANA
09:00 2.9 -1.3 74 25 20   96.93     LegendNANA
10:00 2.6 -1.0 78 26 21   96.95     LegendNANA
11:00 3.4 -3.1 63 27 27   96.94     LegendNANA
12:00 4.3 -2.8 60 26 27   96.94     LegendNANA
13:00 4.2 -2.7 61 26 30   96.94     LegendNANA
14:00 4.3 -1.8 65 27 25   96.98     LegendNANA
15:00 4.3 -0.9 69 27 23   97.04     LegendNANA
16:00 3.1 -1.0 75 26 24   97.11     LegendNANA
17:00 3.3 -1.4 71 27 25   97.20     LegendNANA
18:00 2.3 -0.6 81 27 23   97.28     LegendNANA
19:00 1.9 -0.5 84 26 16   97.33     LegendNANA
20:00 1.4 -0.8 85 25 12   97.37     LegendNANA
21:00 1.7 -0.8 83 26 14   97.41     LegendNANA
22:00 1.4 -0.8 85 27 16   97.47     LegendNANA
23:00 1.2 -1.0 85 26 13   97.48     LegendNANA

Notes on Data Quality.

Legend

  • E = Estimated
  • M = Missing
  • NA = Not Available
  • ‡ = Partner data that is not subject to review by the National Climate Archives
Date modified: